Location: Baumgarten
(49.0970°N, 12.7493°E)
Time: 17:50:01
(UTC+00:00)

Cosmos 2297 - Pass Details

Date: 05 July 2020
Orbit: 835 x 859 km, 71.0° (Epoch: 13 August)

Event Time Altitude Azimuth Distance (km) Brightness Sun altitude
Rises 22:46:35 0° 329° (NNW) 3,445 8.1 -18.0°
Reaches altitude 10° 22:49:03 10° 327° (NNW) 2,503 7.1 -18.0°
Maximum altitude 22:54:46 68° 247° (WSW) 924 3.8 -18.1°
Enters shadow 22:57:28 32° 173° (S) 1,440 4.3 -18.1°
